#timestamp,LO_Frequency,Hit,StdDev 
1583903715.3,286047002.5,P
1583903735.1,286046999.9,P
1583903755.9,286047000.7,N
1583903775.7,286047002.5,N
1583903795.6,286046999.9,N
1583903815.4,286047002.7,N
1583903835.2,286047002.7,N
1583903855.1,286047002.2,N
1583903856.0,286047002.2,N
1583903875.8,286047002.1,N
1583903895.6,286047001.4,N
1583903915.5,286047001.4,N
1583903935.3,286047003.7,Y
1583903955.2,286047000.0,P
1583903975.9,286047000.8,N
1583903995.7,286046998.9,N
1583904015.6,286046999.2,N
1583904035.4,286046996.6,Y
1583904055.3,286046997.4,P
1583904075.1,286046999.6,N
1583904076.0,286046999.6,N
1583904095.8,286046995.4,Y
1583904115.7,286046991.7,P
1583904135.5,286046994.7,N
1583904155.4,286046994.0,N
1583904175.2,286046996.4,N
1583904195.0,286046995.9,N
1583904195.9,286046995.9,N
1583904215.8,286046994.9,N
1583904235.6,286046995.4,N
1583904255.4,286046995.6,N
1583904275.3,286046995.7,N
1583904295.1,286046995.4,N
1583904315.9,286046995.7,N
1583904335.7,286046995.7,N
1583904355.5,286046997.5,N
1583904375.4,286046995.6,N
1583904395.2,286046993.7,Y
1583904415.1,286046998.8,P
1583904416.0,286046998.8,N
1583904435.8,286046999.0,N
1583904455.6,286046998.8,N
1583904475.5,286046999.6,N
1583904495.3,286046996.6,N
1583904515.2,286046999.2,N
1583904535.9,286046998.5,N
1583904555.7,286046999.1,N
1583904575.6,286046998.9,N
1583904595.4,286046999.9,N
1583904615.2,286046999.8,N
1583904635.1,286046999.7,N
1583904636.0,286046999.7,N
1583904655.8,286047001.0,N
1583904675.7,286046999.8,N
1583904695.5,286047001.1,N
1583904715.3,286046998.8,N
1583904735.2,286046998.5,N
1583904755.0,286046996.7,N
1583904755.9,286046996.7,N
1583904775.8,286046996.9,N
1583904795.6,286046996.5,N
1583904815.4,286046999.1,N
1583904835.3,286046996.9,N
1583904855.1,286046998.8,N
1583904875.8,286046999.4,N
1583904895.7,286046999.5,N
1583904915.5,286046998.4,N
1583904935.4,286046999.5,N
1583904955.2,286046997.8,N
1583904975.0,286046997.0,N
1583904975.9,286046997.0,N
1583904995.8,286046997.5,N
1583905015.6,286046997.1,N
1583905035.5,286046997.2,N
1583905055.3,286046999.5,N
1583905075.1,286046996.9,N
1583905095.9,286046999.4,N
1583905115.7,286046998.5,N
1583905135.5,286046999.4,N
1583905155.4,286046998.9,N
1583905175.2,286046998.6,N
1583905195.1,286046998.2,N
1583905196.0,286046998.2,N
1583905215.8,286047001.2,N
1583905235.6,286047001.0,N
1583905255.5,286046999.8,N
1583905275.3,286047000.2,N
1583905295.2,286046999.9,N
1583905315.9,286047000.0,N
1583905335.7,286046998.8,N
1583905355.6,286047000.8,N
1583905375.4,286046998.4,N
1583905395.2,286046999.1,N
1583905415.1,286046996.7,N
1583905416.0,286046996.7,N
1583905435.8,286046997.3,N
1583905455.7,286046997.6,N
1583905475.5,286046997.0,N
1583905495.3,286046998.8,N
1583905515.2,286046999.3,N
1583905535.0,286046998.1,N
1583905535.9,286046998.1,N
1583905555.8,286047001.1,N
1583905575.6,286046998.8,N
1583905595.4,286046998.8,N
1583905615.3,286047000.5,N
1583905635.1,286046999.3,N
1583905655.8,286046999.4,N
1583905675.7,286046997.0,N
1583905695.5,286046996.7,N
1583905715.4,286046997.4,N
1583905735.2,286046996.7,N
1583905755.0,286046998.0,N
1583905755.9,286046998.0,N
1583905775.8,286046996.9,N
1583905795.6,286046996.9,N
1583905815.5,286046997.7,N
1583905835.3,286046997.7,N
1583905855.1,286046999.6,N
1583905875.9,286046996.8,N
1583905895.7,286046998.6,N
1583905915.5,286046999.3,N
1583905935.4,286046998.8,N
1583905955.2,286046998.4,N
1583905975.1,286046998.4,N
1583905976.0,286046998.4,N
1583905995.8,286046998.6,N
1583906015.6,286046996.7,Y
1583906035.5,286047001.2,P
1583906055.3,286047000.3,N
1583906075.2,286046999.9,N
1583906095.9,286047002.1,N
1583906115.7,286046998.1,N
1583906135.6,286046999.9,N
1583906155.4,286047002.7,N
1583906175.2,286047004.4,N
1583906195.1,286047001.8,N
1583906196.0,286047001.8,N
1583906215.8,286047001.3,N
1583906235.7,286047001.7,N
1583906255.5,286047002.1,N
1583906275.3,286047002.5,N
1583906295.2,286047002.7,N
1583906315.0,286047002.0,N
1583906315.9,286047002.0,N
1583906335.8,286046999.9,N
1583906355.6,286047000.2,N
1583906375.4,286047000.7,N
1583906395.3,286047000.8,N
